START_TIME,STEP,MOV.,AL01,t_acc.,AL02,t_acc.,E37,t_acc.,H21,t_acc.
1979-07-05 00:00:35.070 ,0,0,0.,24.0,0.,24.0,10.,24.0,0.,24.0
1979-07-05 00:00:59.070 ,1,1,0.,24.0,1.,24.0,12.,24.0,0.,24.0
1979-07-05 00:01:23.070 ,1,0,0.,24.0,0.,24.0,12.,24.0,0.,24.0
1979-07-05 00:01:47.070 ,2,1,0.,24.0,0.,24.0,21.,24.0,0.,24.0
1979-07-05 00:02:11.070 ,2,0,0.,24.0,0.,24.0,10.,24.0,0.,24.0
1979-07-05 00:02:35.070 ,3,1,0.,24.0,0.,24.0,9.,24.0,0.,24.0
1979-07-05 00:02:59.070 ,3,0,0.,24.0,0.,24.0,10.,24.0,0.,24.0
1979-07-05 00:03:23.070 ,4,1,0.,24.0,0.,24.0,12.,24.0,0.,24.0
1979-07-05 00:03:47.070 ,4,0,3.,24.0,1.,24.0,11.,24.0,0.,24.0
1979-07-05 00:04:11.070 ,5,1,3.,24.0,0.,24.0,17.,24.0,0.,24.0
1979-07-05 00:04:35.070 ,5,0,2.,24.0,1.,24.0,10.,24.0,0.,24.0
1979-07-05 00:04:59.070 ,6,1,2.,24.0,1.,24.0,21.,24.0,0.,24.0
1979-07-05 00:05:23.070 ,6,0,2.,24.0,0.,24.0,17.,24.0,0.,24.0
1979-07-05 00:05:47.070 ,7,1,5.,24.0,0.,24.0,15.,24.0,0.,24.0
1979-07-05 00:06:11.070 ,7,0,28.,24.0,0.,24.0,20.,24.0,0.,24.0
1979-07-05 00:06:35.070 ,7,1,36.,24.0,0.,24.0,20.,24.0,0.,24.0
1979-07-05 00:06:59.070 ,7,0,33.,24.0,0.,24.0,17.,24.0,0.,24.0
1979-07-05 00:07:23.070 ,6,1,15.,24.0,0.,24.0,18.,24.0,0.,24.0
1979-07-05 00:07:47.070 ,6,0,2.,24.0,0.,24.0,27.,24.0,0.,24.0
1979-07-05 00:08:11.070 ,5,1,2.,24.0,0.,24.0,22.,24.0,0.,24.0
1979-07-05 00:08:35.070 ,5,0,5.,24.0,0.,24.0,24.,24.0,0.,24.0
1979-07-05 00:08:59.070 ,4,1,4.,24.0,0.,24.0,27.,24.0,0.,24.0
1979-07-05 00:09:23.070 ,4,0,4.,24.0,1.,24.0,12.,24.0,0.,24.0
1979-07-05 00:09:47.070 ,3,1,4.,24.0,0.,24.0,22.,24.0,0.,24.0
1979-07-05 00:10:11.070 ,3,0,1.,24.0,0.,24.0,17.,24.0,0.,24.0
1979-07-05 00:10:35.070 ,2,1,1.,24.0,0.,24.0,14.,24.0,0.,24.0
1979-07-05 00:10:59.070 ,2,0,0.,24.0,0.,24.0,10.,24.0,0.,24.0
1979-07-05 00:11:23.070 ,1,1,1.,24.0,0.,24.0,13.,24.0,0.,24.0
1979-07-05 00:11:47.070 ,1,0,2.,24.0,0.,24.0,28.,24.0,0.,24.0
1979-07-05 00:12:11.070 ,0,1,0.,24.0,0.,24.0,30.,24.0,0.,24.0
1979-07-05 00:12:35.070 ,0,0,2.,24.0,0.,24.0,32.,24.0,0.,24.0
1979-07-05 00:12:59.070 ,0,1,0.,24.0,0.,24.0,33.,24.0,0.,24.0
1979-07-05 00:13:23.070 ,0,0,0.,24.0,0.,24.0,20.,24.0,0.,24.0
1979-07-05 00:13:47.070 ,1,1,0.,24.0,1.,24.0,22.,24.0,0.,24.0
1979-07-05 00:14:11.070 ,1,0,0.,24.0,0.,24.0,31.,24.0,0.,24.0
1979-07-05 00:14:35.070 ,2,1,1.,24.0,0.,24.0,29.,24.0,0.,24.0
1979-07-05 00:14:59.070 ,2,0,1.,24.0,0.,24.0,27.,24.0,0.,24.0
1979-07-05 00:15:23.070 ,3,1,1.,24.0,0.,24.0,25.,24.0,0.,24.0
1979-07-05 00:15:47.070 ,3,0,1.,24.0,0.,24.0,16.,24.0,0.,24.0
1979-07-05 00:16:11.070 ,4,1,2.,24.0,0.,24.0,27.,24.0,0.,24.0
1979-07-05 00:16:35.070 ,4,0,5.,24.0,0.,24.0,20.,24.0,0.,24.0
1979-07-05 00:16:59.070 ,5,1,3.,24.0,0.,24.0,37.,24.0,0.,24.0
1979-07-05 00:17:23.070 ,5,0,2.,24.0,0.,24.0,24.,24.0,0.,24.0
1979-07-05 00:17:47.070 ,6,1,3.,24.0,1.,24.0,29.,24.0,0.,24.0
1979-07-05 00:18:11.070 ,6,0,3.,24.0,0.,24.0,25.,24.0,0.,24.0
1979-07-05 00:18:35.070 ,7,0,9.,24.0,0.,24.0,36.,24.0,0.,24.0
1979-07-05 00:18:59.070 ,7,0,25.,24.0,0.,24.0,41.,24.0,0.,24.0
1979-07-05 00:19:23.070 ,5,1,15.,24.0,0.,24.0,27.,24.0,0.,24.0
1979-07-05 00:19:47.070 ,1,1,3.,24.0,0.,24.0,19.,24.0,0.,24.0
1979-07-05 00:20:11.070 ,2,1,0.,24.0,0.,24.0,20.,24.0,0.,24.0
1979-07-05 00:20:35.070 ,6,1,6.,24.0,2.,24.0,29.,24.0,0.,24.0
1979-07-05 00:20:59.070 ,5,1,17.,24.0,2.,24.0,40.,24.0,0.,24.0
1979-07-05 00:21:23.070 ,1,1,2.,24.0,1.,24.0,32.,24.0,0.,24.0
1979-07-05 00:21:47.070 ,2,1,0.,24.0,0.,24.0,32.,24.0,0.,24.0
1979-07-05 00:22:11.070 ,6,1,2.,24.0,0.,24.0,39.,24.0,0.,24.0
1979-07-05 00:22:35.070 ,5,1,17.,24.0,2.,24.0,46.,24.0,0.,24.0
1979-07-05 00:22:59.070 ,1,1,1.,24.0,0.,24.0,24.,24.0,0.,24.0
1979-07-05 00:23:23.070 ,2,1,1.,24.0,1.,24.0,33.,24.0,0.,24.0
1979-07-05 00:23:47.070 ,6,1,6.,24.0,0.,24.0,25.,24.0,0.,24.0
1979-07-05 00:24:11.070 ,5,1,23.,24.0,0.,24.0,31.,24.0,0.,24.0
1979-07-05 00:24:35.070 ,1,1,5.,24.0,0.,24.0,36.,24.0,0.,24.0
1979-07-05 00:24:59.070 ,2,1,0.,24.0,0.,24.0,36.,24.0,0.,24.0
1979-07-05 00:25:23.070 ,6,1,4.,24.0,0.,24.0,26.,24.0,0.,24.0
1979-07-05 00:25:47.070 ,5,1,16.,24.0,1.,24.0,41.,24.0,0.,24.0
1979-07-05 00:26:11.070 ,1,1,1.,24.0,0.,24.0,34.,24.0,0.,24.0
1979-07-05 00:26:35.070 ,2,1,1.,24.0,0.,24.0,25.,24.0,0.,24.0
1979-07-05 00:26:59.070 ,6,1,4.,24.0,1.,24.0,36.,24.0,0.,24.0
1979-07-05 00:27:23.070 ,5,1,22.,24.0,0.,24.0,33.,24.0,0.,24.0
1979-07-05 00:27:47.070 ,1,1,1.,24.0,0.,24.0,33.,24.0,0.,24.0
1979-07-05 00:28:11.070 ,2,1,0.,24.0,0.,24.0,35.,24.0,0.,24.0
1979-07-05 00:28:35.070 ,6,1,3.,24.0,0.,24.0,39.,24.0,0.,24.0
1979-07-05 00:28:59.070 ,5,1,21.,24.0,0.,24.0,34.,24.0,0.,24.0
1979-07-05 00:29:23.070 ,1,1,0.,24.0,0.,24.0,34.,24.0,0.,24.0
1979-07-05 00:29:47.070 ,0,0,0.,24.0,0.,24.0,34.,24.0,0.,24.0
1979-07-05 00:30:11.070 ,0,0,5.,24.0,0.,24.0,26.,24.0,0.,24.0
1979-07-05 00:30:35.070 ,5,1,15.,24.0,1.,24.0,33.,24.0,0.,24.0
1979-07-05 00:30:59.070 ,5,0,4.,24.0,1.,24.0,17.,24.0,0.,24.0
1979-07-05 00:31:23.070 ,4,1,4.,24.0,0.,24.0,31.,24.0,0.,24.0
1979-07-05 00:31:47.070 ,4,0,10.,24.0,0.,24.0,26.,24.0,0.,24.0
1979-07-05 00:32:11.070 ,3,1,2.,24.0,0.,24.0,30.,24.0,0.,24.0
1979-07-05 00:32:35.070 ,3,0,0.,24.0,0.,24.0,18.,24.0,0.,24.0
1979-07-05 00:32:59.070 ,2,1,0.,24.0,0.,24.0,26.,24.0,0.,24.0
1979-07-05 00:33:23.070 ,2,0,0.,24.0,1.,24.0,16.,24.0,0.,24.0
1979-07-05 00:33:47.070 ,1,1,1.,24.0,0.,24.0,24.,24.0,0.,24.0
1979-07-05 00:34:11.070 ,1,0,1.,24.0,0.,24.0,39.,24.0,0.,24.0
1979-07-05 00:34:35.070 ,0,1,0.,24.0,0.,24.0,34.,24.0,0.,24.0
1979-07-05 00:34:59.070 ,0,0,0.,24.0,0.,24.0,26.,24.0,0.,24.0
1979-07-05 00:35:23.070 ,0,1,0.,24.0,0.,24.0,35.,24.0,0.,24.0
1979-07-05 00:35:47.070 ,0,0,0.,24.0,0.,24.0,33.,24.0,0.,24.0
1979-07-05 00:36:11.070 ,1,1,0.,24.0,0.,24.0,43.,24.0,0.,24.0
1979-07-05 00:36:35.070 ,1,0,1.,24.0,0.,24.0,34.,24.0,0.,24.0
1979-07-05 00:36:59.070 ,2,1,0.,24.0,0.,24.0,33.,24.0,0.,24.0
1979-07-05 00:37:23.070 ,2,0,1.,24.0,0.,24.0,32.,24.0,0.,24.0
1979-07-05 00:37:47.070 ,3,1,4.,24.0,0.,24.0,35.,24.0,0.,24.0
1979-07-05 00:38:11.070 ,3,0,0.,24.0,0.,24.0,36.,24.0,0.,24.0
1979-07-05 00:38:35.070 ,4,1,3.,24.0,1.,24.0,30.,24.0,0.,24.0
1979-07-05 00:38:59.070 ,4,0,1.,24.0,1.,24.0,22.,24.0,0.,24.0
1979-07-05 00:39:23.070 ,5,1,3.,24.0,0.,24.0,41.,24.0,0.,24.0
1979-07-05 00:39:47.070 ,5,0,1.,24.0,1.,24.0,41.,24.0,0.,24.0
1979-07-05 00:40:11.070 ,6,1,1.,24.0,0.,24.0,46.,24.0,0.,24.0
1979-07-05 00:40:35.070 ,6,0,1.,24.0,0.,24.0,42.,24.0,0.,24.0
1979-07-05 00:40:59.070 ,7,1,11.,24.0,0.,24.0,35.,24.0,0.,24.0
1979-07-05 00:41:23.070 ,7,0,35.,24.0,0.,24.0,34.,24.0,0.,24.0
1979-07-05 00:41:47.070 ,7,1,28.,24.0,0.,24.0,39.,24.0,0.,24.0
1979-07-05 00:42:11.070 ,7,0,46.,24.0,0.,24.0,33.,24.0,0.,24.0
1979-07-05 00:42:35.070 ,6,1,20.,24.0,0.,24.0,46.,24.0,0.,24.0
1979-07-05 00:42:59.070 ,6,0,4.,24.0,0.,24.0,36.,24.0,0.,24.0
1979-07-05 00:43:23.070 ,5,1,3.,24.0,0.,24.0,48.,24.0,0.,24.0
1979-07-05 00:43:47.070 ,5,0,7.,24.0,1.,24.0,47.,24.0,0.,24.0
1979-07-05 00:44:11.070 ,4,1,4.,24.0,1.,24.0,64.,24.0,0.,24.0
1979-07-05 00:44:35.070 ,4,0,3.,24.0,0.,24.0,62.,24.0,0.,24.0
1979-07-05 00:44:59.070 ,3,1,2.,24.0,0.,24.0,48.,24.0,0.,24.0
1979-07-05 00:45:23.070 ,3,0,2.,24.0,0.,24.0,36.,24.0,0.,24.0
1979-07-05 00:45:47.070 ,2,1,2.,24.0,0.,24.0,36.,24.0,0.,24.0
1979-07-05 00:46:11.070 ,2,0,2.,24.0,0.,24.0,37.,24.0,0.,24.0
1979-07-05 00:46:35.070 ,1,1,1.,24.0,1.,24.0,41.,24.0,0.,24.0
1979-07-05 00:46:59.070 ,1,0,0.,24.0,0.,24.0,43.,24.0,0.,24.0
1979-07-05 00:47:23.070 ,0,1,0.,24.0,0.,24.0,44.,24.0,0.,24.0
1979-07-05 00:47:47.070 ,0,0,0.,24.0,0.,24.0,50.,24.0,0.,24.0
1979-07-05 00:48:11.070 ,0,1,0.,24.0,0.,24.0,41.,24.0,0.,24.0
1979-07-05 00:48:35.070 ,0,0,2.,24.0,0.,24.0,46.,24.0,0.,24.0
1979-07-05 00:48:59.070 ,1,1,0.,24.0,0.,24.0,38.,24.0,0.,24.0
1979-07-05 00:49:23.070 ,1,0,2.,24.0,0.,24.0,44.,24.0,0.,24.0
1979-07-05 00:49:47.070 ,2,1,0.,24.0,0.,24.0,35.,24.0,0.,24.0
1979-07-05 00:50:11.070 ,2,0,1.,24.0,1.,24.0,33.,24.0,0.,24.0
1979-07-05 00:50:35.070 ,3,1,0.,24.0,0.,24.0,31.,24.0,0.,24.0
1979-07-05 00:50:59.070 ,3,0,1.,24.0,0.,24.0,27.,24.0,0.,24.0
1979-07-05 00:51:23.070 ,4,1,3.,24.0,1.,24.0,38.,24.0,0.,24.0
1979-07-05 00:51:47.070 ,4,0,3.,24.0,1.,24.0,47.,24.0,0.,24.0
1979-07-05 00:52:11.070 ,5,1,6.,24.0,0.,24.0,42.,24.0,0.,24.0
1979-07-05 00:52:35.070 ,5,0,3.,24.0,0.,24.0,38.,24.0,0.,24.0
1979-07-05 00:52:59.070 ,6,1,1.,24.0,2.,24.0,68.,24.0,0.,24.0
1979-07-05 00:53:23.070 ,6,0,3.,24.0,0.,24.0,52.,24.0,0.,24.0
1979-07-05 00:53:47.070 ,7,1,7.,24.0,2.,24.0,72.,24.0,0.,24.0
1979-07-05 00:54:11.070 ,7,0,37.,24.0,0.,24.0,60.,24.0,0.,24.0
1979-07-05 00:54:35.070 ,7,1,25.,24.0,0.,24.0,46.,24.0,0.,24.0
1979-07-05 00:54:59.070 ,7,0,26.,24.0,0.,24.0,51.,24.0,0.,24.0
1979-07-05 00:55:23.070 ,6,1,26.,24.0,0.,24.0,43.,24.0,0.,24.0
1979-07-05 00:55:47.070 ,6,0,5.,24.0,0.,24.0,48.,24.0,0.,24.0
1979-07-05 00:56:11.070 ,5,1,3.,24.0,1.,24.0,62.,24.0,0.,24.0
1979-07-05 00:56:35.070 ,5,0,4.,24.0,0.,24.0,54.,24.0,0.,24.0
1979-07-05 00:56:59.070 ,4,1,1.,24.0,0.,24.0,33.,24.0,0.,24.0
1979-07-05 00:57:23.070 ,4,0,0.,24.0,0.,24.0,35.,24.0,0.,24.0
1979-07-05 00:57:47.070 ,3,1,3.,24.0,1.,24.0,26.,24.0,0.,24.0
1979-07-05 00:58:11.070 ,3,0,1.,24.0,0.,24.0,28.,24.0,0.,24.0
1979-07-05 00:58:35.070 ,2,1,0.,24.0,0.,24.0,18.,24.0,0.,24.0
1979-07-05 00:58:59.070 ,2,0,0.,24.0,0.,24.0,18.,24.0,0.,24.0
1979-07-05 00:59:23.070 ,1,1,0.,24.0,0.,24.0,19.,24.0,0.,24.0
1979-07-05 00:59:47.070 ,1,0,0.,24.0,0.,24.0,21.,24.0,0.,24.0
1979-07-05 01:00:11.070 ,0,1,0.,24.0,0.,24.0,26.,24.0,0.,24.0
1979-07-05 01:00:35.070 ,0,0,0.,24.0,0.,24.0,27.,24.0,0.,24.0
1979-07-05 01:00:59.070 ,0,1,0.,24.0,0.,24.0,42.,24.0,0.,24.0
1979-07-05 01:01:23.070 ,0,0,0.,24.0,0.,24.0,39.,24.0,0.,24.0
1979-07-05 01:01:47.070 ,1,1,0.,24.0,0.,24.0,46.,24.0,0.,24.0
1979-07-05 01:02:11.070 ,1,0,0.,24.0,0.,24.0,42.,24.0,0.,24.0
1979-07-05 01:02:35.070 ,2,1,0.,24.0,0.,24.0,32.,24.0,0.,24.0
1979-07-05 01:02:59.070 ,2,0,0.,24.0,1.,24.0,34.,24.0,0.,24.0
1979-07-05 01:03:23.070 ,3,1,0.,24.0,0.,24.0,34.,24.0,0.,24.0
1979-07-05 01:03:47.070 ,3,0,0.,24.0,0.,24.0,32.,24.0,0.,24.0
1979-07-05 01:04:11.070 ,4,1,1.,24.0,0.,24.0,40.,24.0,0.,24.0
1979-07-05 01:04:35.070 ,4,0,0.,24.0,0.,24.0,40.,24.0,0.,24.0
1979-07-05 01:04:59.070 ,5,1,1.,24.0,0.,24.0,37.,24.0,0.,24.0
1979-07-05 01:05:23.070 ,5,0,5.,24.0,0.,24.0,57.,24.0,0.,24.0
1979-07-05 01:05:47.070 ,6,1,2.,24.0,1.,24.0,50.,24.0,0.,24.0
1979-07-05 01:06:11.070 ,6,0,3.,24.0,0.,24.0,49.,24.0,0.,24.0
1979-07-05 01:06:35.070 ,7,0,8.,24.0,0.,24.0,48.,24.0,0.,24.0
1979-07-05 01:06:59.070 ,7,0,42.,24.0,0.,24.0,57.,24.0,0.,24.0
1979-07-05 01:07:23.070 ,5,1,19.,24.0,0.,24.0,56.,24.0,0.,24.0
1979-07-05 01:07:47.070 ,1,1,0.,24.0,0.,24.0,23.,24.0,0.,24.0
1979-07-05 01:08:11.070 ,2,1,0.,24.0,0.,24.0,31.,24.0,0.,24.0
1979-07-05 01:08:35.070 ,6,1,0.,24.0,0.,24.0,60.,24.0,0.,24.0
1979-07-05 01:08:59.070 ,5,1,13.,24.0,0.,24.0,57.,24.0,0.,24.0
1979-07-05 01:09:23.070 ,1,1,0.,24.0,1.,24.0,22.,24.0,0.,24.0
1979-07-05 01:09:47.070 ,2,1,1.,24.0,0.,24.0,17.,24.0,0.,24.0
1979-07-05 01:10:11.070 ,6,1,1.,24.0,0.,24.0,27.,24.0,0.,24.0
1979-07-05 01:10:35.070 ,5,1,12.,24.0,1.,24.0,11.,24.0,0.,24.0
1979-07-05 01:10:59.070 ,1,1,0.,24.0,0.,24.0,5.,24.0,0.,24.0
1979-07-05 01:11:23.070 ,2,1,0.,24.0,0.,24.0,1.,24.0,0.,24.0
1979-07-05 01:11:47.070 ,6,1,1.,24.0,0.,24.0,15.,24.0,0.,24.0
1979-07-05 01:12:11.070 ,5,1,16.,24.0,0.,24.0,9.,24.0,0.,24.0
1979-07-05 01:12:35.070 ,1,1,0.,24.0,0.,24.0,8.,24.0,0.,24.0
1979-07-05 01:12:59.070 ,2,1,0.,24.0,0.,24.0,2.,24.0,0.,24.0
1979-07-05 01:13:23.070 ,6,1,1.,24.0,0.,24.0,8.,24.0,0.,24.0
1979-07-05 01:13:47.070 ,5,1,15.,24.0,0.,24.0,3.,24.0,0.,24.0
1979-07-05 01:14:11.070 ,1,1,0.,24.0,0.,24.0,7.,24.0,0.,24.0
1979-07-05 01:14:35.070 ,2,1,1.,24.0,0.,24.0,7.,24.0,0.,24.0
1979-07-05 01:14:59.070 ,6,1,2.,24.0,0.,24.0,7.,24.0,0.,24.0
1979-07-05 01:15:23.070 ,5,1,12.,24.0,0.,24.0,8.,24.0,0.,24.0
1979-07-05 01:15:47.070 ,1,1,0.,24.0,0.,24.0,5.,24.0,0.,24.0
1979-07-05 01:16:11.070 ,2,1,0.,24.0,1.,24.0,4.,24.0,0.,24.0
1979-07-05 01:16:35.070 ,6,1,0.,24.0,1.,24.0,5.,24.0,0.,24.0
1979-07-05 01:16:59.070 ,5,1,15.,24.0,0.,24.0,3.,24.0,0.,24.0
1979-07-05 01:17:23.070 ,1,1,0.,24.0,0.,24.0,9.,24.0,0.,24.0
1979-07-05 01:17:47.070 ,0,0,0.,24.0,0.,24.0,5.,24.0,0.,24.0
1979-07-05 01:18:11.070 ,0,0,0.,24.0,0.,24.0,5.,24.0,0.,24.0
1979-07-05 01:18:35.070 ,5,1,8.,24.0,0.,24.0,1.,24.0,0.,24.0
1979-07-05 01:18:59.070 ,5,0,2.,24.0,0.,24.0,4.,24.0,0.,24.0
1979-07-05 01:19:23.070 ,4,1,4.,24.0,0.,24.0,5.,24.0,0.,24.0
1979-07-05 01:19:47.070 ,4,0,1.,24.0,0.,24.0,7.,24.0,0.,24.0
1979-07-05 01:20:11.070 ,3,1,0.,24.0,0.,24.0,7.,24.0,0.,24.0
1979-07-05 01:20:35.070 ,3,0,0.,24.0,0.,24.0,5.,24.0,0.,24.0
1979-07-05 01:20:59.070 ,2,1,0.,24.0,1.,24.0,3.,24.0,0.,24.0
1979-07-05 01:21:23.070 ,2,0,0.,24.0,0.,24.0,1.,24.0,0.,24.0
1979-07-05 01:21:47.070 ,1,1,0.,24.0,0.,24.0,1.,24.0,0.,24.0
1979-07-05 01:22:11.070 ,1,0,0.,24.0,0.,24.0,2.,24.0,0.,24.0
1979-07-05 01:22:35.070 ,0,1,0.,24.0,0.,24.0,4.,24.0,0.,24.0
1979-07-05 01:22:59.070 ,0,0,1.,24.0,0.,24.0,2.,24.0,0.,24.0
1979-07-05 01:23:23.070 ,0,1,0.,24.0,0.,24.0,3.,24.0,0.,24.0
1979-07-05 01:23:47.070 ,0,0,0.,24.0,0.,24.0,3.,24.0,0.,24.0
1979-07-05 01:24:11.070 ,1,1,0.,24.0,0.,24.0,1.,24.0,0.,24.0
1979-07-05 01:24:35.070 ,1,0,0.,24.0,0.,24.0,1.,24.0,0.,24.0
1979-07-05 01:24:59.070 ,2,1,0.,24.0,0.,24.0,1.,24.0,0.,24.0
1979-07-05 01:25:23.070 ,2,0,0.,24.0,0.,24.0,5.,24.0,0.,24.0
1979-07-05 01:25:47.070 ,3,1,0.,24.0,1.,24.0,3.,24.0,0.,24.0
1979-07-05 01:26:11.070 ,3,0,0.,24.0,0.,24.0,1.,24.0,0.,24.0
1979-07-05 01:26:35.070 ,4,1,0.,24.0,0.,24.0,4.,24.0,0.,24.0
1979-07-05 01:26:59.070 ,4,0,2.,24.0,0.,24.0,5.,24.0,0.,24.0
1979-07-05 01:27:23.070 ,5,1,1.,24.0,0.,24.0,2.,24.0,0.,24.0
1979-07-05 01:27:47.070 ,5,0,0.,24.0,0.,24.0,0.,24.0,0.,24.0
1979-07-05 01:28:11.070 ,6,1,0.,24.0,0.,24.0,2.,24.0,0.,24.0
1979-07-05 01:28:35.070 ,6,0,0.,24.0,0.,24.0,2.,24.0,0.,24.0
1979-07-05 01:28:59.070 ,7,1,7.,24.0,0.,24.0,4.,24.0,0.,24.0
1979-07-05 01:29:23.070 ,7,0,36.,24.0,0.,24.0,3.,24.0,0.,24.0
1979-07-05 01:29:47.070 ,7,1,25.,24.0,0.,24.0,4.,24.0,0.,24.0
1979-07-05 01:30:11.070 ,7,0,21.,24.0,0.,24.0,2.,24.0,0.,24.0
1979-07-05 01:30:35.070 ,6,1,27.,24.0,0.,24.0,2.,24.0,0.,24.0
1979-07-05 01:30:59.070 ,6,0,0.,24.0,0.,24.0,2.,24.0,0.,24.0
1979-07-05 01:31:23.070 ,5,1,0.,24.0,1.,24.0,2.,24.0,0.,24.0
1979-07-05 01:31:47.070 ,5,0,1.,24.0,0.,24.0,1.,24.0,0.,24.0
1979-07-05 01:32:11.070 ,4,1,1.,24.0,1.,24.0,3.,24.0,0.,24.0
1979-07-05 01:32:35.070 ,4,0,2.,24.0,0.,24.0,1.,24.0,0.,24.0
1979-07-05 01:32:59.070 ,3,1,2.,24.0,0.,24.0,0.,24.0,0.,24.0
1979-07-05 01:33:23.070 ,3,0,1.,24.0,1.,24.0,2.,24.0,0.,24.0
1979-07-05 01:33:47.070 ,2,1,0.,24.0,0.,24.0,1.,24.0,0.,24.0
1979-07-05 01:34:11.070 ,2,0,0.,24.0,0.,24.0,0.,24.0,0.,24.0
1979-07-05 01:34:35.070 ,1,1,0.,24.0,0.,24.0,1.,24.0,0.,24.0
1979-07-05 01:34:59.070 ,1,0,0.,24.0,0.,24.0,2.,24.0,0.,24.0
1979-07-05 01:35:23.070 ,0,1,0.,24.0,1.,24.0,1.,24.0,0.,24.0
1979-07-05 01:35:47.070 ,0,0,0.,24.0,0.,24.0,0.,24.0,0.,24.0
1979-07-05 01:36:11.070 ,0,1,0.,24.0,0.,24.0,2.,24.0,0.,24.0
1979-07-05 01:36:35.070 ,0,0,0.,24.0,0.,24.0,1.,24.0,0.,24.0
1979-07-05 01:36:59.070 ,1,1,0.,24.0,1.,24.0,3.,24.0,0.,24.0
1979-07-05 01:37:23.070 ,1,0,0.,24.0,0.,24.0,3.,24.0,0.,24.0
1979-07-05 01:37:47.070 ,2,1,0.,24.0,0.,24.0,4.,24.0,0.,24.0
1979-07-05 01:38:11.070 ,2,0,0.,24.0,0.,24.0,4.,24.0,0.,24.0
1979-07-05 01:38:35.070 ,3,1,0.,24.0,0.,24.0,0.,24.0,0.,24.0
1979-07-05 01:38:59.070 ,3,0,2.,24.0,0.,24.0,1.,24.0,0.,24.0
1979-07-05 01:39:23.070 ,4,1,1.,24.0,0.,24.0,2.,24.0,0.,24.0
1979-07-05 01:39:47.070 ,4,0,0.,24.0,0.,24.0,1.,24.0,0.,24.0
1979-07-05 01:40:11.070 ,5,1,3.,24.0,0.,24.0,2.,24.0,0.,24.0
1979-07-05 01:40:35.070 ,5,0,0.,24.0,0.,24.0,3.,24.0,0.,24.0
1979-07-05 01:40:59.070 ,6,1,0.,24.0,0.,24.0,2.,24.0,0.,24.0
1979-07-05 01:41:23.070 ,6,0,1.,24.0,0.,24.0,1.,24.0,0.,24.0
1979-07-05 01:41:47.070 ,7,1,5.,24.0,0.,24.0,0.,24.0,0.,24.0
1979-07-05 01:42:11.070 ,7,0,30.,24.0,0.,24.0,1.,24.0,0.,24.0
1979-07-05 01:42:35.070 ,7,1,40.,24.0,0.,24.0,1.,24.0,0.,24.0
1979-07-05 01:42:59.070 ,0,0,31.,24.0,0.,24.0,0.,24.0,0.,24.0
1979-07-05 01:44:29.070 ,0,0,,0,,0,,0,,0
1979-07-05 01:44:35.070 ,0,0,0.,24.0,0.,24.0,1.,24.0,0.,24.0
1979-07-05 01:44:59.070 ,4,1,0.,24.0,0.,24.0,0.,24.0,0.,24.0
1979-07-05 01:45:23.070 ,4,0,0.,24.0,0.,24.0,0.,24.0,0.,24.0
1979-07-05 01:45:47.070 ,3,1,1.,24.0,0.,24.0,1.,24.0,0.,24.0
1979-07-05 01:46:11.070 ,3,0,1.,24.0,0.,24.0,1.,24.0,0.,24.0
1979-07-05 01:46:35.070 ,2,1,0.,24.0,0.,24.0,0.,24.0,0.,24.0
1979-07-05 01:46:59.070 ,2,0,0.,24.0,0.,24.0,1.,24.0,0.,24.0
1979-07-05 01:47:23.070 ,1,1,0.,24.0,0.,24.0,1.,24.0,0.,24.0
1979-07-05 01:47:47.070 ,1,0,0.,24.0,0.,24.0,0.,24.0,0.,24.0
1979-07-05 01:48:11.070 ,0,1,0.,24.0,0.,24.0,0.,24.0,0.,24.0
1979-07-05 01:48:35.070 ,0,0,0.,24.0,0.,24.0,1.,24.0,0.,24.0
1979-07-05 01:48:59.070 ,0,1,0.,24.0,0.,24.0,1.,24.0,0.,24.0
1979-07-05 01:49:23.070 ,0,0,2.,24.0,0.,24.0,3.,24.0,0.,24.0
1979-07-05 01:49:47.070 ,1,1,1.,24.0,0.,24.0,1.,24.0,0.,24.0
1979-07-05 01:50:11.070 ,1,0,1.,24.0,0.,24.0,2.,24.0,0.,24.0
1979-07-05 01:50:35.070 ,2,1,1.,24.0,0.,24.0,0.,24.0,0.,24.0
1979-07-05 01:50:59.070 ,2,0,0.,24.0,0.,24.0,2.,24.0,0.,24.0
1979-07-05 01:51:23.070 ,3,1,0.,24.0,0.,24.0,0.,24.0,0.,24.0
1979-07-05 01:51:47.070 ,3,0,0.,24.0,0.,24.0,0.,24.0,0.,24.0
1979-07-05 01:52:11.070 ,4,1,0.,24.0,0.,24.0,0.,24.0,0.,24.0
1979-07-05 01:52:35.070 ,4,0,0.,24.0,0.,24.0,0.,24.0,0.,24.0
1979-07-05 01:52:59.070 ,5,1,0.,24.0,0.,24.0,1.,24.0,0.,24.0
1979-07-05 01:53:23.070 ,5,0,0.,24.0,0.,24.0,0.,24.0,0.,24.0
1979-07-05 01:53:47.070 ,6,1,0.,24.0,0.,24.0,1.,24.0,0.,24.0
1979-07-05 01:54:11.070 ,6,0,0.,24.0,0.,24.0,0.,24.0,0.,24.0
1979-07-05 01:54:35.070 ,7,0,8.,24.0,0.,24.0,0.,24.0,0.,24.0
1979-07-05 01:54:59.070 ,7,0,25.,24.0,1.,24.0,1.,24.0,0.,24.0
1979-07-05 01:55:23.060 ,5,1,16.,24.0,1.,24.0,0.,24.0,0.,24.0
1979-07-05 01:55:47.060 ,1,1,1.,24.0,0.,24.0,1.,24.0,0.,24.0
1979-07-05 01:56:11.060 ,2,1,0.,24.0,0.,24.0,0.,24.0,0.,24.0
1979-07-05 01:56:35.060 ,6,1,0.,24.0,0.,24.0,0.,24.0,0.,24.0
1979-07-05 01:56:59.060 ,5,1,18.,24.0,0.,24.0,1.,24.0,0.,24.0
1979-07-05 01:57:23.060 ,1,1,1.,24.0,0.,24.0,1.,24.0,0.,24.0
1979-07-05 01:57:47.060 ,2,1,0.,24.0,0.,24.0,1.,24.0,0.,24.0
1979-07-05 01:58:11.060 ,6,1,0.,24.0,0.,24.0,1.,24.0,0.,24.0
1979-07-05 01:58:35.060 ,5,1,21.,24.0,0.,24.0,2.,24.0,0.,24.0
1979-07-05 01:58:59.060 ,1,1,1.,24.0,0.,24.0,0.,24.0,0.,24.0
1979-07-05 01:59:23.060 ,2,1,1.,24.0,1.,24.0,1.,24.0,0.,24.0
1979-07-05 01:59:47.060 ,6,1,1.,24.0,0.,24.0,0.,24.0,0.,24.0
1979-07-05 02:00:11.060 ,5,1,13.,24.0,1.,24.0,1.,24.0,0.,24.0
1979-07-05 02:00:35.070 ,1,1,0.,24.0,0.,24.0,0.,24.0,0.,24.0
1979-07-05 02:00:59.070 ,2,1,1.,24.0,0.,24.0,0.,24.0,0.,24.0
1979-07-05 02:01:23.070 ,6,1,0.,24.0,0.,24.0,1.,24.0,0.,24.0
1979-07-05 02:01:47.070 ,5,1,15.,24.0,0.,24.0,0.,24.0,0.,24.0
1979-07-05 02:02:11.070 ,1,1,0.,24.0,0.,24.0,0.,24.0,0.,24.0
1979-07-05 02:02:35.070 ,2,1,0.,24.0,0.,24.0,0.,24.0,0.,24.0
1979-07-05 02:02:59.070 ,6,1,0.,24.0,0.,24.0,0.,24.0,0.,24.0
1979-07-05 02:03:23.070 ,5,1,10.,24.0,0.,24.0,0.,24.0,0.,24.0
1979-07-05 02:03:47.070 ,1,1,0.,24.0,1.,24.0,1.,24.0,0.,24.0
1979-07-05 02:04:11.070 ,2,1,0.,24.0,1.,24.0,1.,24.0,0.,24.0
1979-07-05 02:04:35.070 ,6,1,0.,24.0,0.,24.0,1.,24.0,0.,24.0
1979-07-05 02:04:59.070 ,5,1,19.,24.0,0.,24.0,1.,24.0,0.,24.0
1979-07-05 02:05:23.070 ,1,1,0.,24.0,0.,24.0,1.,24.0,0.,24.0
1979-07-05 02:05:47.070 ,0,0,0.,24.0,0.,24.0,0.,24.0,0.,24.0
1979-07-05 02:06:11.070 ,0,0,0.,24.0,0.,24.0,1.,24.0,0.,24.0
1979-07-05 02:06:35.070 ,5,1,13.,24.0,0.,24.0,1.,24.0,0.,24.0
1979-07-05 02:06:59.070 ,5,0,0.,24.0,0.,24.0,0.,24.0,0.,24.0
1979-07-05 02:07:23.070 ,4,1,0.,24.0,0.,24.0,1.,24.0,0.,24.0
1979-07-05 02:07:47.070 ,4,0,0.,24.0,0.,24.0,1.,24.0,0.,24.0
1979-07-05 02:08:11.070 ,3,1,0.,24.0,0.,24.0,1.,24.0,0.,24.0
1979-07-05 02:08:35.070 ,3,0,0.,24.0,0.,24.0,0.,24.0,0.,24.0
1979-07-05 02:08:59.070 ,2,1,0.,24.0,0.,24.0,0.,24.0,0.,24.0
1979-07-05 02:09:23.070 ,2,0,1.,24.0,0.,24.0,0.,24.0,0.,24.0
1979-07-05 02:09:47.070 ,1,1,1.,24.0,0.,24.0,0.,24.0,0.,24.0
1979-07-05 02:10:11.070 ,1,0,1.,24.0,0.,24.0,1.,24.0,0.,24.0
1979-07-05 02:10:35.070 ,0,1,0.,24.0,0.,24.0,0.,24.0,0.,24.0
1979-07-05 02:10:59.070 ,0,0,1.,24.0,0.,24.0,0.,24.0,0.,24.0
1979-07-05 02:11:23.070 ,0,1,0.,24.0,0.,24.0,0.,24.0,0.,24.0
1979-07-05 02:11:47.070 ,0,0,0.,24.0,0.,24.0,0.,24.0,0.,24.0
1979-07-05 02:12:11.070 ,1,1,0.,24.0,0.,24.0,2.,24.0,0.,24.0
1979-07-05 02:12:35.070 ,1,0,0.,24.0,0.,24.0,1.,24.0,0.,24.0
1979-07-05 02:12:59.070 ,2,1,1.,24.0,0.,24.0,0.,24.0,0.,24.0
1979-07-05 02:13:23.070 ,2,0,0.,24.0,0.,24.0,0.,24.0,0.,24.0
1979-07-05 02:13:47.070 ,3,1,0.,24.0,0.,24.0,1.,24.0,0.,24.0
1979-07-05 02:14:11.070 ,3,0,0.,24.0,0.,24.0,1.,24.0,0.,24.0
1979-07-05 02:14:35.070 ,4,1,0.,24.0,0.,24.0,0.,24.0,0.,24.0
1979-07-05 02:14:59.070 ,4,0,0.,24.0,0.,24.0,0.,24.0,0.,24.0
1979-07-05 02:15:23.070 ,5,1,1.,24.0,0.,24.0,0.,24.0,0.,24.0
1979-07-05 02:15:47.070 ,5,0,0.,24.0,0.,24.0,1.,24.0,0.,24.0
1979-07-05 02:16:11.070 ,6,1,0.,24.0,0.,24.0,0.,24.0,0.,24.0
1979-07-05 02:16:35.070 ,6,0,0.,24.0,0.,24.0,0.,24.0,0.,24.0
1979-07-05 02:16:59.070 ,7,1,4.,24.0,0.,24.0,0.,24.0,0.,24.0
1979-07-05 02:17:23.070 ,7,0,26.,24.0,0.,24.0,1.,24.0,0.,24.0
1979-07-05 02:17:47.070 ,7,1,30.,24.0,0.,24.0,1.,24.0,0.,24.0
1979-07-05 02:18:11.070 ,7,0,25.,24.0,0.,24.0,0.,24.0,0.,24.0
1979-07-05 02:18:35.060 ,6,1,29.,24.0,0.,24.0,0.,24.0,0.,24.0
1979-07-05 02:18:59.060 ,6,0,0.,24.0,0.,24.0,1.,24.0,0.,24.0
1979-07-05 02:19:23.060 ,5,1,0.,24.0,0.,24.0,0.,24.0,0.,24.0
1979-07-05 02:19:47.060 ,5,0,0.,24.0,0.,24.0,0.,24.0,0.,24.0
1979-07-05 02:20:11.060 ,4,1,0.,24.0,1.,24.0,1.,24.0,0.,24.0
1979-07-05 02:20:35.060 ,4,0,0.,24.0,0.,24.0,0.,24.0,0.,24.0
1979-07-05 02:20:59.060 ,3,1,0.,24.0,0.,24.0,2.,24.0,0.,24.0
1979-07-05 02:21:23.060 ,3,0,0.,24.0,0.,24.0,0.,24.0,0.,24.0
1979-07-05 02:21:47.060 ,2,1,0.,24.0,0.,24.0,0.,24.0,0.,24.0
1979-07-05 02:22:11.060 ,2,0,0.,24.0,0.,24.0,1.,24.0,0.,24.0
1979-07-05 02:22:35.060 ,1,1,0.,24.0,0.,24.0,0.,24.0,0.,24.0
1979-07-05 02:22:59.060 ,1,0,2.,24.0,0.,24.0,0.,24.0,0.,24.0
1979-07-05 02:23:23.060 ,0,1,0.,24.0,0.,24.0,0.,24.0,0.,24.0
1979-07-05 02:23:47.060 ,0,0,0.,24.0,0.,24.0,0.,24.0,0.,24.0
1979-07-05 02:24:11.060 ,0,1,0.,24.0,0.,24.0,1.,24.0,0.,24.0
1979-07-05 02:24:35.060 ,0,0,1.,24.0,0.,24.0,0.,24.0,0.,24.0
1979-07-05 02:24:59.060 ,1,1,0.,24.0,0.,24.0,1.,24.0,0.,24.0
1979-07-05 02:25:23.060 ,1,0,0.,24.0,0.,24.0,1.,24.0,0.,24.0
1979-07-05 02:25:47.060 ,2,1,1.,24.0,0.,24.0,0.,24.0,0.,24.0
1979-07-05 02:26:11.060 ,2,0,0.,24.0,0.,24.0,0.,24.0,0.,24.0
1979-07-05 02:26:35.060 ,3,1,0.,24.0,0.,24.0,0.,24.0,0.,24.0
1979-07-05 02:26:59.060 ,3,0,0.,24.0,0.,24.0,0.,24.0,0.,24.0
1979-07-05 02:27:23.060 ,4,1,0.,24.0,0.,24.0,0.,24.0,0.,24.0
1979-07-05 02:27:47.060 ,4,0,0.,24.0,0.,24.0,0.,24.0,0.,24.0
1979-07-05 02:28:11.060 ,5,1,0.,24.0,0.,24.0,0.,24.0,0.,24.0
1979-07-05 02:28:35.060 ,5,0,0.,24.0,0.,24.0,0.,24.0,0.,24.0
1979-07-05 02:28:59.060 ,6,1,0.,24.0,0.,24.0,1.,24.0,0.,24.0
1979-07-05 02:29:23.060 ,6,0,0.,24.0,1.,24.0,0.,24.0,0.,24.0
1979-07-05 02:29:47.060 ,7,1,7.,24.0,0.,24.0,0.,24.0,0.,24.0
1979-07-05 02:30:11.060 ,7,0,38.,24.0,0.,24.0,0.,24.0,0.,24.0
1979-07-05 02:30:35.060 ,7,1,29.,24.0,0.,24.0,0.,24.0,0.,24.0
1979-07-05 02:30:59.060 ,7,0,30.,24.0,0.,24.0,0.,24.0,0.,24.0
1979-07-05 02:31:23.060 ,6,1,23.,24.0,0.,24.0,0.,24.0,0.,24.0
1979-07-05 02:31:47.060 ,6,0,0.,24.0,0.,24.0,0.,24.0,0.,24.0
1979-07-05 02:32:11.060 ,5,1,1.,24.0,0.,24.0,0.,24.0,0.,24.0
1979-07-05 02:32:35.060 ,5,0,0.,24.0,0.,24.0,0.,24.0,0.,24.0
1979-07-05 02:32:59.060 ,4,1,0.,24.0,0.,24.0,0.,24.0,0.,24.0
1979-07-05 02:33:23.060 ,4,0,0.,24.0,0.,24.0,0.,24.0,0.,24.0
1979-07-05 02:33:47.060 ,3,1,0.,24.0,0.,24.0,0.,24.0,0.,24.0